This is the latest recevied weather packets stored in our database for station/object PD0HRY-12. If no packets are shown the sender has not sent any weather packets the latest 10 day(s).
| Time | Temp. | Humidity | Pressure | Rain* | Wind** | Luminosity | Snow |
|---|---|---|---|---|---|---|---|
| 1788604204 | 18.89° C | 69% | 1017 hPa | 105.66 mm | - | - | - |
| 1788602402 | 19.44° C | 67% | 1016 hPa | 105.66 mm | - | - | - |
| 1788600601 | 18.89° C | 68% | 1016 hPa | 109.22 mm | - | - | - |
| 1788598804 | 18.33° C | 75% | 1016 hPa | 109.22 mm | - | - | - |
| 1788597002 | 17.78° C | 78% | 1015 hPa | 118.11 mm | - | - | - |
| 1788595201 | 17.22° C | 81% | 1015 hPa | 118.11 mm | - | - | - |
| 1788593404 | 16.67° C | 82% | 1015 hPa | 118.11 mm | - | - | - |
| 1788591602 | 15.56° C | 84% | 1014 hPa | 118.11 mm | - | - | - |
| 1788589801 | 14.44° C | 86% | 1014 hPa | 118.11 mm | - | - | - |
| 1788588004 | 13.89° C | 87% | 1014 hPa | 118.11 mm | - | - | - |
| 1788586203 | 13.33° C | 89% | 1014 hPa | 118.11 mm | - | - | - |
| 1788584401 | 12.78° C | 90% | 1013 hPa | 118.11 mm | - | - | - |
| 1788582604 | 13.33° C | 89% | 1013 hPa | 118.11 mm | - | - | - |
| 1788580802 | 13.33° C | 89% | 1013 hPa | 118.11 mm | - | - | - |
| 1788579001 | 13.33° C | 88% | 1013 hPa | 118.11 mm | - | - | - |
| 1788577204 | 13.33° C | 88% | 1013 hPa | 118.11 mm | - | - | - |
| 1788575403 | 13.33° C | 87% | 1013 hPa | 118.11 mm | - | - | - |
| 1788573601 | 13.89° C | 86% | 1012 hPa | 118.11 mm | - | - | - |
| 1788571804 | 13.89° C | 86% | 1012 hPa | 118.11 mm | - | - | - |
| 1788570003 | 13.89° C | 86% | 1012 hPa | 118.11 mm | - | - | - |
| 1788568201 | 14.44° C | 83% | 1012 hPa | 118.11 mm | - | - | - |
| 1788566404 | 14.44° C | 83% | 1012 hPa | 118.11 mm | - | - | - |
| 1788564602 | 14.44° C | 83% | 1012 hPa | 118.11 mm | - | - | - |
| 1788562801 | 15° C | 82% | 1012 hPa | 118.11 mm | - | - | - |
| 1788561004 | 15.56° C | 81% | 1012 hPa | 118.11 mm | - | - | - |
* Rain latest 24 hours (hover to see other rain measurements)
** Current wind speed in m/s (hover to see current wind gust speed)